Weather History for Whiteman AFB, MO

Change the Weather History Date:

Friday, June 28, 2013

  Actual Average Record
Temperature  
Mean Temperature 76 °F -  
Max Temperature 87 °F 84 °F 103 °F (2012)
Min Temperature 66 °F 65 °F 59 °F (2006)
Cooling Degree Days 12    
Growing Degree Days 26 (Base 50)    
Moisture  
Dew Point 66 °F    
Average Humidity 77    
Maximum Humidity 100    
Minimum Humidity 38    
Precipitation  
Precipitation 0.00 in - - ()
Sea Level Pressure  
Sea Level Pressure 29.90 in    
Wind  
Wind Speed 14 mph (WNW)    
Max Wind Speed 37 mph    
Max Gust Speed 58 mph    
Visibility 8 miles    
Events Rain , Thunderstorm    
Averages and records for this station are not official NWS values.
T = Trace of Precipitation, MM = Missing Value Source: NWS Daily Summary

Daily Weather History Graph

Daily Weather History Graph

Search for Another Location

Airport:

Trip Planner

Search our weather history database for the weather conditions in past years. The results will help you decide how hot, cold, wet, or windy it might be!

Date:

Astronomy

Jun. 28, 2013 Rise Set
Actual Time 5:51 AM CDT 8:43 PM CDT
Civil Twilight 5:19 AM CDT 9:14 PM CDT
Nautical Twilight 4:39 AM CDT 9:55 PM CDT
Astronomical Twilight 3:53 AM CDT 10:40 PM CDT
Moon No Moon Rise 11:56 AM CDT (6/28)
Length of Visible Light 15h 54m
Length of Day
14h 51m
Waning Gibbous, 66% of the Moon is Illuminated
Jun 28
Waning Gibbous
Jun 29
Last Quarter
Jul 8
New
Jul 15
First Quarter
Jul 22
Full

Hourly Weather History & Observations

Time (CDT) Temp. Heat Index Dew Point Humidity Pressure Visibility Wind Dir Wind Speed Gust Speed Precip Events Conditions
12:08 AM 75.2 °F - 75.2 °F 100% 29.96 in 3.0 mi West 36.8 mph 51.8 mph N/A Rain , Thunderstorm Heavy Thunderstorms and Rain
12:17 AM 71.6 °F - 71.6 °F 100% 30.01 in 1.8 mi West 32.2 mph 57.5 mph N/A Rain , Thunderstorm Heavy Thunderstorms and Rain
12:22 AM 69.8 °F - 69.8 °F 100% 29.99 in 3.0 mi West 21.9 mph 38.0 mph N/A Rain , Thunderstorm Heavy Thunderstorms and Rain
12:27 AM 69.8 °F - 69.8 °F 100% 29.99 in 2.5 mi WNW 12.7 mph 38.0 mph N/A Rain , Thunderstorm Heavy Thunderstorms and Rain
12:32 AM 69.8 °F - 69.8 °F 100% 29.98 in 2.0 mi WNW 10.4 mph 27.6 mph N/A Rain , Thunderstorm Heavy Thunderstorms and Rain
12:37 AM 68.0 °F - 68.0 °F 100% 29.98 in 3.0 mi Variable 2.3 mph - N/A Rain , Thunderstorm Heavy Thunderstorms and Rain
12:42 AM 68.0 °F - 68.0 °F 100% 29.97 in 4.0 mi East 5.8 mph - N/A Rain , Thunderstorm Light Thunderstorms and Rain
12:47 AM 68.0 °F - 68.0 °F 100% 29.96 in 7.0 mi Variable 3.5 mph - N/A Rain , Thunderstorm Light Thunderstorms and Rain
12:55 AM 68.0 °F - 68.0 °F 100% 29.95 in 10.0 mi North 3.5 mph - N/A Rain , Thunderstorm Light Thunderstorms and Rain
1:01 AM 68.0 °F - 68.0 °F 100% 29.94 in 10.0 mi NE 5.8 mph - N/A Thunderstorm Overcast
1:32 AM 68.0 °F - 68.0 °F 100% 29.93 in 6.0 mi ESE 6.9 mph - N/A Rain Light Rain Showers
1:44 AM 69.8 °F - 69.8 °F 100% 29.92 in 10.0 mi South 5.8 mph - N/A   Mostly Cloudy
1:50 AM 69.8 °F - 69.8 °F 100% 29.93 in 6.0 mi South 6.9 mph - N/A Rain Light Rain Showers
1:58 AM 69.8 °F - 69.8 °F 100% 29.91 in 10.0 mi SSW 4.6 mph - 0.00 in   Mostly Cloudy
2:02 AM 69.8 °F - 69.8 °F 100% 29.92 in 10.0 mi SSW 1.2 mph - N/A   Mostly Cloudy
2:58 AM 68.4 °F - 68.4 °F 100% 29.89 in 10.0 mi Calm Calm - 0.00 in   Scattered Clouds
3:58 AM 67.6 °F - 67.6 °F 100% 29.87 in 10.0 mi NNW 2.3 mph - N/A   Scattered Clouds
4:58 AM 67.3 °F - 67.3 °F 100% 29.90 in 10.0 mi WSW 3.5 mph - N/A   Mostly Cloudy
5:58 AM 66.7 °F - 66.7 °F 100% 29.90 in 10.0 mi SSW 2.3 mph - N/A   Clear
6:58 AM 67.6 °F - 67.6 °F 100% 29.91 in 10.0 mi WSW 3.5 mph - N/A   Scattered Clouds
7:58 AM 71.1 °F - 71.1 °F 100% 29.91 in 10.0 mi West 5.8 mph - N/A   Scattered Clouds
8:58 AM 75.2 °F - 75.2 °F 100% 29.91 in 10.0 mi West 5.8 mph - N/A   Clear
9:58 AM 79.2 °F - 73.4 °F 82% 29.91 in 10.0 mi NW 9.2 mph - N/A   Clear
10:58 AM 81.9 °F 86.8 °F 72.5 °F 73% 29.90 in 10.0 mi WNW 10.4 mph - N/A   Partly Cloudy
11:58 AM 84.0 °F 88.7 °F 70.7 °F 64% 29.90 in 10.0 mi WNW 10.4 mph - N/A   Partly Cloudy
12:58 PM 86.2 °F 88.2 °F 65.5 °F 50% 29.89 in 10.0 mi WNW 15.0 mph 19.6 mph N/A   Clear
1:46 PM 86.0 °F 86.6 °F 62.6 °F 45% 29.89 in 10.0 mi WNW 18.4 mph - N/A   Clear
1:51 PM 86.0 °F 86.6 °F 62.6 °F 45% 29.89 in 10.0 mi NNW 12.7 mph - N/A   Clear
1:52 PM 87.8 °F 88.5 °F 62.6 °F 43% 29.89 in 10.0 mi North 12.7 mph - N/A   Clear
1:58 PM 87.1 °F 87.8 °F 62.6 °F 44% 29.87 in 10.0 mi NNW 15.0 mph - N/A   Clear
2:58 PM 87.3 °F 87.0 °F 60.3 °F 40% 29.87 in 10.0 mi NNW 15.0 mph - N/A   Partly Cloudy
3:00 PM 87.8 °F 87.1 °F 59.0 °F 38% 29.88 in 10.0 mi NW 15.0 mph - N/A   Partly Cloudy
3:51 PM 87.8 °F 87.6 °F 60.8 °F 40% 29.87 in 10.0 mi WNW 17.3 mph 23.0 mph N/A   Clear
3:58 PM 87.6 °F 87.4 °F 60.8 °F 40% 29.86 in 10.0 mi NW 13.8 mph 23.0 mph N/A   Clear
4:58 PM 87.4 °F 86.7 °F 59.2 °F 38% 29.85 in 10.0 mi NNW 16.1 mph 23.0 mph N/A   Clear
5:58 PM 86.5 °F 85.6 °F 58.5 °F 38% 29.84 in 10.0 mi NW 17.3 mph 24.2 mph N/A   Clear
6:58 PM 83.8 °F 83.6 °F 59.0 °F 43% 29.83 in 10.0 mi NNW 12.7 mph - N/A   Clear
7:58 PM 81.5 °F 81.7 °F 58.8 °F 46% 29.83 in 10.0 mi NW 8.1 mph - N/A   Clear
8:58 PM 77.4 °F - 59.7 °F 54% 29.83 in 10.0 mi WNW 6.9 mph - N/A   Clear
9:58 PM 74.3 °F - 59.9 °F 61% 29.83 in 10.0 mi WNW 6.9 mph - N/A   Clear
10:58 PM 73.4 °F - 59.9 °F 63% 29.83 in 10.0 mi WNW 8.1 mph - N/A   Clear
11:58 PM 72.1 °F - 60.1 °F 66% 29.82 in 10.0 mi WNW 8.1 mph - N/A   Partly Cloudy